Change the Weather History Date:

Monday, October 28, 2013

  Actual Average Record
Temperature  
Mean Temperature 42 °F -  
Max Temperature 55 °F 58 °F 76 °F (1989)
Min Temperature 30 °F 39 °F 26 °F (2005)
Degree Days  
Heating Degree Days 22    
Moisture  
Dew Point 34 °F    
Average Humidity 78    
Maximum Humidity 100    
Minimum Humidity 53    
Precipitation  
Precipitation 0.00 in - - ()
Sea Level Pressure  
Sea Level Pressure 30.24 in    
Wind  
Wind Speed 3 mph (ENE)    
Max Wind Speed 10 mph    
Max Gust Speed -    
Visibility 10 miles    
Events      
Averages and records for this station are not official NWS values.
T = Trace of Precipitation, MM = Missing Value Source: NWS Daily Summary

Daily Weather History Graph

Daily Weather History Graph

Search for Another Location

Airport or City:

Trip Planner

Search our weather history database for the weather conditions in past years. The results will help you decide how hot, cold, wet, or windy it might be!

Date:

Astronomy

Oct. 28, 2013 Rise Set
Actual Time 8:13 AM EDT 6:44 PM EDT
Civil Twilight 7:45 AM EDT 7:13 PM EDT
Nautical Twilight 7:12 AM EDT 7:45 PM EDT
Astronomical Twilight 6:39 AM EDT 8:18 PM EDT
Moon 2:00 AM EDT (10/28) 3:31 PM EDT (10/28)
Length of Visible Light 11h 28m
Length of Day
10h 30m
Waning Crescent, 34% of the Moon is Illuminated
Oct 28
Waning Crescent
Nov 3
New
Nov 10
First Quarter
Nov 17
Full
Nov 25
Last Quarter

Hourly Weather History & Observations

Time (EDT) Temp. Windchill Dew Point Humidity Pressure Visibility Wind Dir Wind Speed Gust Speed Precip Events Conditions
12:53 AM 33.1 °F - 30.0 °F 89% 30.08 in 10.0 mi Calm Calm - N/A   Clear
1:53 AM 33.1 °F 30.0 °F 30.9 °F 92% 30.09 in 10.0 mi East 3.5 mph - N/A   Clear
2:53 AM 32.0 °F - 30.0 °F 92% 30.09 in 10.0 mi Calm Calm - N/A   Clear
3:53 AM 33.1 °F - 30.9 °F 92% 30.10 in 10.0 mi Calm Calm - N/A   Mostly Cloudy
4:53 AM 33.1 °F - 32.0 °F 96% 30.11 in 10.0 mi Calm Calm - N/A   Clear
5:53 AM 32.0 °F - 30.9 °F 96% 30.13 in 10.0 mi Calm Calm - N/A   Clear
6:53 AM 30.0 °F - 30.0 °F 100% 30.15 in 10.0 mi Calm Calm - N/A   Clear
7:53 AM 30.0 °F - 30.0 °F 100% 30.18 in 8.0 mi Calm Calm - N/A   Partly Cloudy
8:53 AM 30.0 °F - 30.0 °F 100% 30.22 in 6.0 mi Calm Calm - N/A   Clear
9:53 AM 39.9 °F 37.8 °F 35.1 °F 83% 30.25 in 10.0 mi NE 3.5 mph - N/A   Clear
10:53 AM 45.0 °F 40.1 °F 37.0 °F 74% 30.27 in 10.0 mi East 9.2 mph - N/A   Clear
11:53 AM 50.0 °F - 39.0 °F 66% 30.28 in 10.0 mi East 10.4 mph - N/A   Clear
12:53 PM 53.1 °F - 39.0 °F 59% 30.28 in 10.0 mi ENE 5.8 mph - N/A   Clear
1:53 PM 54.0 °F - 39.0 °F 57% 30.28 in 10.0 mi ENE 6.9 mph - N/A   Clear
2:53 PM 55.0 °F - 37.9 °F 53% 30.27 in 10.0 mi ENE 4.6 mph - N/A   Clear
3:53 PM 55.0 °F - 37.9 °F 53% 30.27 in 10.0 mi East 5.8 mph - N/A   Clear
4:53 PM 55.0 °F - 39.0 °F 55% 30.27 in 10.0 mi ENE 6.9 mph - N/A   Mostly Cloudy
5:53 PM 52.0 °F - 37.9 °F 59% 30.28 in 10.0 mi NE 4.6 mph - N/A   Scattered Clouds
6:53 PM 48.0 °F - 37.9 °F 68% 30.30 in 10.0 mi NE 6.9 mph - N/A   Clear
7:53 PM 44.1 °F 40.1 °F 36.0 °F 73% 30.33 in 10.0 mi NE 6.9 mph - N/A   Clear
8:53 PM 42.1 °F 37.1 °F 35.1 °F 76% 30.35 in 10.0 mi ENE 8.1 mph - N/A   Clear
9:53 PM 39.9 °F 35.1 °F 34.0 °F 79% 30.36 in 10.0 mi ENE 6.9 mph - N/A   Clear
10:53 PM 39.0 °F 34.0 °F 34.0 °F 82% 30.38 in 10.0 mi ENE 6.9 mph - N/A   Clear
11:53 PM 37.9 °F 33.5 °F 33.1 °F 83% 30.38 in 10.0 mi ENE 5.8 mph - N/A   Clear